Regional Weather Roundup
Issued by NWS Huntsville, AL

Home | Current Version | Previous Version | Text Only | Print | Product List | Glossary On
Versions: 1 2 3 4 5 6 7 8 9 10 11 12 13 14 15 16 17 18 19 20 21 22 23 24 25 26 27 28 29 30 31 32 33 34 35 36 37 38 39 40 41 42 43 44 45 46 47 48 49 50
000
ASUS44 KHUN 310710
RWRHUN

WEATHER ROUNDUP FOR THE TENNESSEE VALLEY
NATIONAL WEATHER SERVICE HUNTSVILLE AL
200 AM CDT FRI JUL 31 2015

ALZ001>004-310800-
NORTHWEST ALABAMA

CITY           SKY/WX    TMP DP  RH WIND       PRES   REMARKS
COURTLAND HCN    N/A     72 N/A N/A CALM        N/A
RUSSELLVILLE     N/A     68 N/A N/A MISG        N/A
SHOALS AIRPORT CLEAR     74  61  63 NE5       30.05F
SHOALS TVA RES   N/A     73 N/A N/A MISG        N/A
$$

ALZ005>007-016-310800-
NORTH CENTRAL ALABAMA

CITY           SKY/WX    TMP DP  RH WIND       PRES   REMARKS
CULLMAN AG STN   N/A     70 N/A N/A N5          N/A
DECATUR AP     CLEAR     66  64  93 CALM      30.03F
HUNTSVILLE AP  CLEAR     72  62  71 N5        30.02F
HUN NWS/UAH      N/A     73  59  62 NE6         N/A
MERIDIANVILLE  CLEAR     64  59  82 N6        30.04S
REDSTONE ARSN  CLEAR     68  62  81 N5        30.01F
VINEMONT AP    FAIR      69  62  77 N7        30.05S
$$

ALZ008>010-310800-
NORTHEAST ALABAMA

CITY           SKY/WX    TMP DP  RH WIND       PRES   REMARKS
ALBERTVILLE    CLEAR     72  68  88 N9        30.00F
FORT PAYNE     CLEAR     66  61  82 CALM      30.00F
SCOTTSBORO AP  CLEAR     72  63  73 NE6       30.01F
SCOTTSBORO HCN   N/A     72 N/A N/A MISG        N/A
VALLEY HEAD      N/A     66 N/A N/A MISG        N/A
$$

TNZ076-096-097-310800-
SOUTHEASTERN MIDDLE TENNESSEE

CITY           SKY/WX    TMP DP  RH WIND       PRES   REMARKS
TULLAHOMA      CLEAR     68  59  73 N3        30.07F
WINCHESTER     CLEAR     66  63  88 CALM      30.06F
$$

...SURROUNDING SITES...

CITY           SKY/WX    TMP DP  RH WIND       PRES   REMARKS
ATLANTA        CLEAR     76  68  76 NW8       29.95S
ANNISTON       CLEAR     77  65  66 E6        29.98S
BIRMINGHAM     CLEAR     74  64  71 N7        30.00F
CHATTANOOGA    CLEAR     75  61  61 N10       30.02F
DALTON         CLEAR     72  64  78 N12       29.99S
GADSDEN        CLEAR     73  61  64 N7        29.98F
GOLDEN TRNGL   CLEAR     70  63  78 N3        30.00R
HALEYVILLE     FAIR      70  63  78 N6        30.06S
JACKSON TN     PTCLDY    69  63  81 CALM      30.06F
MEMPHIS        PTCLDY    76  62  62 N7        30.07R
NASHVILLE      PTCLDY    72  62  71 N3        30.07F
ROME           CLEAR     76  63  64 N8        29.97F
SAVANNAH       CLEAR     64  32  29 CALM      30.06S
TUPELO         CLEAR     68  63  84 NE8       30.02F
TUSCALOOSA     CLEAR     76  63  64 N7        29.97F
$$

...GULF COAST WEATHER...

CITY           SKY/WX    TMP DP  RH WIND       PRES   REMARKS
GULFPORT       CLOUDY    77  73  87 N5        29.93F
PASCAGOULA     CLOUDY    75  74  96 CALM      29.93F
MOBILE         MOCLDY    74  74 100 CALM      29.95F
GULF SHORES    CLOUDY    77  73  86 NW5       29.91F
PENSACOLA      CLOUDY    77  74  90 CALM      29.90F
DESTIN         CLOUDY    81  78  91 NW3       29.91F
PANAMA CITY    PTCLDY    78  77  97 CALM      29.90F
APPALACHICOLA  PTCLDY    80  77  90 CALM      29.91F
$$



USA.gov is the U.S. government's official web portal to all federal, state and local government web resources and services.